Weather

DAILY 7 DAY TOTAL
onrain

Note: Some stations are located near irrigated fields and may also report irrigation

Alliston Mount Forest Blyth Guelph Grand Bend Strathroy Woodstock Belmont Simcoe Leamington Chatham West Lorne






West Lorne - Historical Weather Data
Date Max Temp (°C) Min Temp (°C) Avg Temp (°C) Rain (mm) 7Day Rain(mm) Total Rain(mm) Avg RH (%)
10/14/2019 10.8 2.6 7.2 0.0 9.0 409.0 82.6
10/13/2019 17.3 3.9 10.6 0.0 9.0 409.0 76.7
10/12/2019 17.5 2.7 8.2 7.8 13.0 409.0 88.6
10/11/2019 19.8 9.6 16.0 1.2 5.2 401.2 91.8
10/10/2019 19.2 5.3 11.8 0.0 4.0 400.0 86.9
10/9/2019 19.2 6.0 11.9 0.0 16.8 400.0 86.0
10/8/2019 20.1 3.9 11.2 0.0 25.4 400.0 91.8
10/7/2019 19.7 7.2 13.5 0.0 25.4 400.0 84.9
10/6/2019 20.7 12.3 16.6 4.0 25.4 400.0 90.5
10/5/2019 15.3 3.6 10.2 0.0 26.6 396.0 90.4
10/4/2019 15.0 3.6 10.5 0.0 33.8 396.0 91.0
10/3/2019 15.5 8.9 12.1 12.8 34.8 396.0 99.9
10/2/2019 20.9 12.1 17.1 8.6 22.4 383.2 99.9
10/1/2019 30.0 17.7 22.6 0.0 14.2 374.6 92.0
9/30/2019 22.5 10.9 16.4 0.0 14.2 374.6 96.0
9/29/2019 18.1 9.3 13.0 5.2 14.2 374.6 95.8
9/28/2019 21.5 11.3 17.6 7.2 9.0 369.4 99.1
9/27/2019 23.3 5.2 15.4 1.0 1.8 362.2 86.1
9/26/2019 22.3 7.1 16.7 0.4 0.8 361.2 79.7
9/25/2019 24.9 15.0 19.9 0.4 0.4 360.8 83.3
9/24/2019 24.8 11.4 16.9 0.0 0.0 360.4 84.9
9/23/2019 25.6 15.1 21.8 0.0 0.0 360.4 77.1
9/22/2019 30.1 19.8 25.0 0.0 0.0 360.4 77.2
9/21/2019 29.6 14.5 22.1 0.0 1.4 360.4 90.4
9/20/2019 27.0 14.1 20.3 0.0 1.4 360.4 90.2
9/19/2019 24.1 15.7 19.3 0.0 3.2 360.4 84.3
9/18/2019 24.3 9.6 16.6 0.0 5.6 360.4 82.6
9/17/2019 24.2 10.2 17.3 0.0 7.6 360.4 83.2
9/16/2019 26.3 16.7 19.9 0.0 7.6 360.4 95.0
9/15/2019 22.8 10.3 16.7 1.4 7.6 360.4 97.4
9/14/2019 22.7 12.1 17.8 0.0 6.2 359.0 90.7
9/13/2019 27.1 13.0 20.2 1.8 7.0 359.0 98.4
9/12/2019 19.8 13.0 17.5 2.4 5.2 357.2 98.7
9/11/2019 31.2 18.7 23.0 2.0 2.8 354.8 93.3
9/10/2019 26.4 12.1 20.3 0.0 3.4 352.8 93.1
9/9/2019 21.6 8.0 14.5 0.0 3.4 352.8 92.8
9/8/2019 21.6 9.4 15.1 0.0 7.6 352.8 91.6
9/7/2019 24.2 12.3 17.5 0.8 8.6 352.8 91.1
9/6/2019 23.9 8.3 15.8 0.0 7.8 352.0 90.4
9/5/2019 24.5 5.7 14.5 0.0 7.8 352.0 86.0
9/4/2019 22.9 9.1 17.9 2.6 7.8 352.0 91.4
9/3/2019 24.5 11.6 19.2 0.0 5.2 349.4 96.2
9/2/2019 26.7 14.7 19.2 4.2 14.2 349.4 93.3
9/1/2019 20.3 13.0 16.5 1.0 10.2 345.2 98.2
8/31/2019 24.2 8.5 15.8 0.0 9.2 344.2 85.6
8/30/2019 26.9 11.3 20.0 0.0 9.2 344.2 85.4
8/29/2019 24.3 12.3 19.1 0.0 9.2 344.2 83.6
8/28/2019 24.0 15.0 19.7 0.0 9.2 344.2 82.6
8/27/2019 24.5 17.9 21.0 9.0 14.8 344.2 99.8
8/26/2019 24.5 18.2 20.7 0.2 6.2 335.2 82.1
8/25/2019 23.5 11.5 17.1 0.0 8.2 335.0 85.9
8/24/2019 22.7 7.7 15.4 0.0 31.8 335.0 85.6
8/23/2019 26.5 8.7 16.5 0.0 41.4 335.0 85.4
8/22/2019 25.3 11.4 18.6 0.0 41.4 335.0 86.6
8/21/2019 28.4 17.8 22.3 5.6 42.8 335.0 96.7
8/20/2019 29.2 17.8 23.3 0.4 37.2 329.4 93.7
8/19/2019 27.1 18.0 22.0 2.2 37.2 329.0 93.9
8/18/2019 27.8 18.6 23.0 23.6 55.8 326.8 96.1
8/17/2019 27.8 18.5 23.2 9.6 32.2 303.2 91.0
8/16/2019 26.5 13.7 20.1 0.0 22.6 293.6 90.8
8/15/2019 27.0 15.0 20.1 1.4 22.6 293.6 89.5
8/14/2019 29.9 15.1 21.4 0.0 21.4 292.2 83.6
8/13/2019 30.3 17.6 23.1 0.4 41.6 292.2 89.4
8/12/2019 28.4 18.4 23.2 20.8 41.2 291.8 90.4
8/11/2019 27.3 11.1 20.0 0.0 20.4 271.0 85.3
8/10/2019 26.8 11.0 18.5 0.0 20.8 271.0 79.7
8/9/2019 26.0 12.1 19.3 0.0 20.8 271.0 79.4
8/8/2019 27.7 17.5 21.9 0.2 20.8 271.0 86.8
8/7/2019 30.9 16.0 21.6 20.2 20.6 270.8 91.0
8/6/2019 27.3 17.2 22.9 0.0 0.4 250.6 93.5
8/5/2019 28.4 14.7 22.2 0.0 3.6 250.6 90.5
8/4/2019 28.4 15.9 21.3 0.4 10.6 250.6 91.7
8/3/2019 31.5 11.8 21.2 0.0 21.4 250.2 82.0
8/2/2019 29.2 12.6 20.4 0.0 21.4 250.2 83.3
8/1/2019 27.7 11.4 19.8 0.0 21.4 250.2 83.0
7/31/2019 28.9 14.3 20.5 0.0 21.4 250.2 85.4
7/30/2019 27.9 19.2 22.9 3.2 21.6 250.2 91.7
7/29/2019 28.8 19.8 24.0 7.0 18.4 247.0 92.0
7/28/2019 29.5 20.0 23.8 11.2 12.6 240.0 92.3
7/27/2019 29.0 17.8 23.9 0.0 1.4 228.8 82.9
7/26/2019 28.6 14.9 22.0 0.0 14.0 228.8 85.4
7/25/2019 28.7 11.6 20.3 0.0 14.0 228.8 82.1
7/24/2019 28.6 12.7 20.0 0.2 14.0 228.8 79.9
7/23/2019 27.4 10.5 18.7 0.0 20.0 228.6 80.0
7/22/2019 26.8 14.2 20.2 1.2 25.4 228.6 87.6
7/21/2019 28.8 19.7 23.0 0.0 24.2 227.4 85.7
7/20/2019 33.0 21.4 26.9 12.6 24.2 227.4 88.3
7/19/2019 32.6 23.2 27.1 0.0 12.2 214.8 95.5
7/18/2019 28.6 17.1 22.9 0.0 12.2 214.8 94.9
7/17/2019 31.6 18.9 24.4 6.2 12.2 214.8 92.0
7/16/2019 28.4 20.5 24.0 5.4 6.0 208.6 95.7
7/15/2019 28.1 10.7 20.5 0.0 0.6 203.2 79.9
7/14/2019 29.8 12.6 21.2 0.0 0.6 203.2 76.4
7/13/2019 31.9 14.9 23.3 0.6 0.6 203.2 84.1
7/12/2019 26.3 14.8 20.1 0.0 8.4 202.6 87.2
7/11/2019 31.6 16.5 24.7 0.0 8.4 202.6 84.1
7/10/2019 30.0 14.3 22.9 0.0 8.4 202.6 86.2
7/9/2019 26.7 10.9 19.3 0.0 8.4 202.6 81.3
7/8/2019 27.6 12.6 19.9 0.0 23.6 202.6 78.3
7/7/2019 28.2 16.7 22.3 0.0 23.6 202.6 86.2
7/6/2019 31.3 20.5 25.2 8.4 23.6 202.6 92.8
7/5/2019 32.0 20.5 25.9 0.0 15.2 194.2 90.0
7/4/2019 29.6 16.7 23.6 0.0 17.2 194.2 93.3
7/3/2019 29.1 19.4 23.4 0.0 17.2 194.2 92.3
7/2/2019 32.4 19.2 24.3 15.2 17.2 194.2 88.0
7/1/2019 28.5 10.1 20.5 0.0 2.0 179.0 78.9
6/30/2019 27.5 12.9 21.1 0.0 3.0 179.0 77.4
6/29/2019 31.3 17.1 23.8 0.0 3.0 179.0 86.1
6/28/2019 30.8 15.8 23.0 2.0 3.0 179.0 87.0
6/27/2019 30.4 15.2 22.3 0.0 1.0 177.0 77.3
6/26/2019 30.2 18.0 24.2 0.0 12.6 177.0 70.1
6/25/2019 27.8 17.6 21.8 0.0 12.6 177.0 80.7
6/24/2019 26.2 17.9 21.3 1.0 12.6 177.0 88.3
6/23/2019 24.9 8.8 18.2 0.0 11.6 176.0 73.8
6/22/2019 26.9 7.6 17.3 0.0 14.2 176.0 77.1
6/21/2019 23.5 9.9 16.6 0.0 20.0 176.0 81.2
6/20/2019 19.0 14.2 17.2 11.6 20.2 176.0 99.9
6/19/2019 26.4 12.3 19.9 0.0 16.2 164.4 84.6
6/18/2019 25.0 11.9 18.4 0.0 16.2 164.4 90.3
6/17/2019 22.7 11.4 17.2 0.0 16.2 164.4 88.6
6/16/2019 17.9 12.1 15.8 2.6 24.8 164.4 98.7
6/15/2019 19.7 16.3 17.7 5.8 22.2 161.8 89.3
6/14/2019 22.0 9.1 15.8 0.2 16.4 156.0 78.2
6/13/2019 18.9 10.5 14.9 7.6 16.2 155.8 97.4
6/12/2019 23.0 11.9 17.8 0.0 8.6 148.2 70.0
6/11/2019 24.9 8.4 16.7 0.0 17.0 148.2 74.2
6/10/2019 20.8 12.0 17.4 8.6 17.0 148.2 96.1
6/9/2019 25.4 16.7 21.0 0.0 8.4 139.6 72.2
6/8/2019 26.7 12.5 20.0 0.0 10.0 139.6 65.1
6/7/2019 24.8 9.5 18.0 0.0 26.0 139.6 80.5
6/6/2019 23.6 11.3 16.2 0.0 26.0 139.6 94.6
6/5/2019 24.8 15.5 19.3 8.4 26.6 139.6 93.2
6/4/2019 23.1 8.4 16.5 0.0 18.8 131.2 81.7
6/3/2019 18.4 4.5 10.8 0.0 23.6 131.2 80.2
6/2/2019 20.8 6.4 14.5 1.6 24.0 131.2 81.9
6/1/2019 24.6 14.2 18.4 16.0 23.8 129.6 90.6
5/31/2019 21.5 6.8 15.7 0.0 15.6 113.6 83.0
5/30/2019 20.8 11.6 15.8 0.6 16.0 113.6 97.8
5/29/2019 16.9 11.1 13.4 0.6 18.4 113.0 99.8
5/28/2019 24.7 11.6 16.7 4.8 19.2 112.4 97.3
5/27/2019 22.7 6.7 15.5 0.4 14.4 107.6 79.1
5/26/2019 22.4 9.4 17.6 1.4 14.0 107.2 91.8
5/25/2019 30.1 10.8 19.1 7.8 14.6 105.8 91.2
5/24/2019 18.1 7.1 13.2 0.4 6.8 98.0 92.8
5/23/2019 25.9 9.5 18.6 3.0 6.4 97.6 81.7
5/22/2019 16.7 7.4 12.1 1.4 3.4 94.6 84.7
5/21/2019 19.6 2.3 11.3 0.0 4.8 93.2 77.7
5/20/2019 15.6 4.5 12.4 0.0 4.8 93.2 91.7
5/19/2019 27.7 11.5 17.8 2.0 9.4 93.2 89.6
5/18/2019 17.5 5.6 11.9 0.0 11.8 91.2 85.1
5/17/2019 18.6 7.2 13.6 0.0 11.8 91.2 83.3
5/16/2019 19.2 5.5 13.7 0.0 18.0 91.2 81.6
5/15/2019 21.8 7.4 13.5 2.8 34.8 91.2 82.9
5/14/2019 18.8 5.0 11.3 0.0 32.0 88.4 78.3
5/13/2019 9.2 5.3 6.7 4.6 38.6 88.4 97.3
5/12/2019 12.0 6.3 8.4 4.4 35.2 83.8 92.4
5/11/2019 13.6 1.9 7.9 0.0 30.8 79.4 83.2
5/10/2019 16.8 4.4 11.7 6.2 31.4 79.4 92.1
5/9/2019 22.2 9.5 15.2 16.8 33.0 73.2 85.8
5/8/2019 15.7 2.9 9.5 0.0 21.0 56.4 75.5
5/7/2019 9.5 3.0 6.8 6.6 56.4 56.4 95.9
5/6/2019 22.1 6.6 13.5 1.2 57.8 49.8 85.2
5/5/2019 20.3 4.5 12.1 0.0 60.6 48.6 87.1
5/4/2019 13.4 5.9 8.9 0.6 64.8 48.6 97.8
5/3/2019 11.1 6.1 8.6 7.8 64.2 48.0 99.9
5/2/2019 17.5 5.4 11.1 4.8 70.8 40.2 95.5
5/1/2019 17.4 6.2 11.8 35.4 66.4 35.4 98.9